METEOR 2-11 DEB, 40318

Orbit data source: Space-Track

METEOR 2-11 DEB, 40318 is space debris in LEO originally from a launch on Thu, 05 Jul 1984 UTC launched from the Plesetsk Missile And Space Complex (PKMTR). Debris objects in space refer to the collection of defunct objects orbiting the Earth. Examples of debris include non-operational satellites, rocket bodies, and fragments generated from explosions, collisions, or faulty payload assembly.

Loading next visibility...
Identifier
40318, 1984-072D
Orbit
LEO
Country
Flag of CISCIS
Related business
Manufacturer
Unknown
Mission
Spacecraft
Bus & Motor
Unknown
Mass
Unknown
Launch date (UTC)
1984-07-05 (42 years ago)
Launch vehicle
Unknown
Launch site
Plesetsk Missile And Space Complex (PKMTR)
Object type
Payload
Rocket body
Debris
Shape & HBR
Unknown shape, 0.1 m
Radar Cross Section
Small (<0.1 m²)

Expand to show TLE details & history
Last TLE update: 2 days ago

TLE from 2 days ago
0 METEOR 2-11 DEB
1 40318U 84072D   26061.42179663  .00000768  00000-0  55232-3 0  9991
2 40318  82.5279 106.3707 0016145 329.1320  91.1198 13.95719886570325
Epoch: 2026-03-02T10:07Z
TLE epoch observation values (Epoch: 2026-03-02T10:07:23.228Z)
Latitude
59.68489°
Longitude
167.20192°
Altitude
919.036 km
Speed
7.398 km/s
True Right ascension
07h 57m 03s
True Declination
59° 32' 17"
Sunlit
Object was in daylight at epoch
Visualization orbit readout
Latitude
Unknown
Longitude
Unknown
Altitude
Unknown
Speed
Unknown
Apparent Right ascension
Unknown
Apparent Declination
Unknown
Sunlit
N/A
Visualization observer readout
Local Sidereal Time
02:24:12
Azimuth
Unknown
Elevation
Unknown
Doppler factor
Unknown
Orbital elements
Apogee altitude
917.551 km
Perigee altitude
894.031 km
Semi-major axis
7,283.928 km
Eccentricity
0.00161
Inclination
82.5279°
RAAN
106.3707°
Arg. of periapsis
329.132°
True anomaly
91.30477°
Mean anomaly
91.1198°
Eccentric anomaly
91.21228°
Mean motion
3.49136 °/min
Orbital period
103.11 mins
BSTAR
0.00055232
Loading maneuver chart data...
Computing Atmospheric mass density...
Loading historical data...
Loading historical data...
Loading historical data...
Loading historical data...
Loading historical data...
Loading historical data...
Loading historical data...

Documentation

Showing up to 5 results
|